Date String (YYYY-MM-DD hh:mm:ss) UTC,Instrument flags,Ambient pressure (hPa),Sample flow (lpm),Bypass flow (lpm),Sample temperature (°C),Ambient temperature (°C),ASC tube jacket temperature (°C),LED temperature (°C),Box temperature (°C),Sample RH (%),Span deviation,Mass concentration (μg/m³),Mass concentration (μg/m³),Mass concentration (μg/m³)
DateTimeUTC,F1_M11,P_M11,Q1_M11,Q2_M11,T1_M11,T2_M11,T3_M11,T4_M11,T5_M11,U1_M11,ZSPAN_M11,X0_M11,X2_M11,X1_M11
2022-03-04 15:00:00,,0819.7,5.01,0.00,25.5,24.8,00.0,34.4,27.4,15.0,-000.1,0022.78,0011.09,0009.32
2022-03-04 15:01:00,,0819.7,5.00,0.00,25.5,24.8,00.0,34.4,27.4,15.0,0000.3,0021.61,0010.89,0009.20
2022-03-04 15:02:00,,0819.7,5.00,0.00,25.5,24.8,00.0,34.4,27.4,14.8,0000.3,0021.13,0010.64,0009.00
2022-03-04 15:03:00,,0819.7,4.99,0.00,25.6,24.8,00.0,34.4,27.4,14.2,0000.3,0019.32,0010.31,0008.76
2022-03-04 15:04:00,,0819.7,4.99,0.00,25.6,24.8,00.0,34.5,27.5,14.2,0000.2,0019.10,0010.05,0008.54
2022-03-04 15:05:00,,0819.7,5.00,0.00,25.6,24.9,00.0,34.5,27.5,14.5,0000.3,0019.11,0009.88,0008.38
2022-03-04 15:06:00,,0819.6,5.00,0.00,25.6,24.9,00.0,34.5,27.5,13.6,0000.4,0018.26,0009.58,0008.19
2022-03-04 15:07:00,,0819.5,5.00,0.00,25.6,24.9,00.0,34.5,27.5,13.3,0000.1,0017.32,0009.29,0007.95
2022-03-04 15:08:00,,0819.6,5.00,0.00,25.7,24.9,00.0,34.5,27.5,13.8,-000.2,0016.96,0009.03,0007.76
2022-03-04 15:09:00,,0819.5,5.00,0.00,25.7,24.9,00.0,34.5,27.5,13.5,-000.0,0016.91,0008.84,0007.59
2022-03-04 15:10:00,,0819.5,5.00,0.00,25.7,25.0,00.0,34.6,27.6,14.4,0000.7,0016.86,0008.65,0007.43
2022-03-04 15:11:00,,0819.4,5.00,0.00,25.7,25.0,00.0,34.6,27.6,14.6,0000.5,0016.42,0008.47,0007.27
2022-03-04 15:12:00,,0819.4,5.01,0.00,25.7,25.0,00.0,34.6,27.6,15.1,-000.4,0016.68,0008.31,0007.09
2022-03-04 15:13:00,,0819.4,5.00,0.00,25.7,25.0,00.0,34.6,27.6,15.4,-000.3,0016.70,0008.19,0007.00
2022-03-04 15:14:00,,0819.4,4.99,0.00,25.8,25.0,00.0,34.6,27.6,15.1,-000.4,0016.39,0008.07,0006.93
2022-03-04 15:15:00,,0819.4,5.00,0.00,25.8,25.1,00.0,34.6,27.7,14.7,-000.1,0015.75,0007.95,0006.85
2022-03-04 15:16:00,,0819.4,5.00,0.00,25.8,25.1,00.0,34.7,27.7,14.8,-000.2,0015.94,0007.76,0006.72
2022-03-04 15:17:00,,0819.4,5.00,0.00,25.8,25.1,00.0,34.7,27.7,14.9,-000.2,0015.82,0007.69,0006.65
2022-03-04 15:18:00,,0819.4,4.99,0.00,25.8,25.1,00.0,34.7,27.7,14.4,0000.2,0015.75,0007.63,0006.59
2022-03-04 15:19:00,,0819.4,5.00,0.00,25.9,25.1,00.0,34.7,27.7,15.1,0000.4,0015.73,0007.60,0006.59
2022-03-04 15:20:00,,0819.4,5.00,0.00,25.9,25.2,00.0,34.7,27.8,15.0,0000.0,0015.62,0007.63,0006.60
2022-03-04 15:21:00,,0819.4,5.01,0.00,25.9,25.2,00.0,34.7,27.8,14.3,-000.6,0015.05,0007.60,0006.55
2022-03-04 15:22:00,,0819.4,4.99,0.00,25.9,25.2,00.0,34.8,27.8,14.3,-000.9,0014.85,0007.51,0006.46
2022-03-04 15:23:00,,0819.3,5.00,0.00,26.0,25.2,00.0,34.8,27.8,14.7,-000.6,0014.64,0007.41,0006.38
2022-03-04 15:24:00,,0819.2,5.00,0.00,26.0,25.3,00.0,34.8,27.9,15.1,-000.6,0014.10,0007.27,0006.26
2022-03-04 15:25:00,,0819.2,5.00,0.00,26.0,25.3,00.0,34.8,27.9,15.3,-000.7,0014.16,0007.20,0006.20
2022-03-04 15:26:00,,0819.3,5.00,0.00,26.0,25.3,00.0,34.8,27.9,14.7,-001.2,0015.20,0007.19,0006.16
2022-03-04 15:27:00,,0819.1,5.00,0.00,26.0,25.3,00.0,34.8,27.9,15.2,-001.5,0014.69,0007.19,0006.15
2022-03-04 15:28:00,,0819.1,4.99,0.00,26.0,25.3,00.0,34.9,27.9,15.0,-001.7,0014.60,0007.24,0006.16
2022-03-04 15:29:00,,0819.1,5.01,0.00,26.1,25.3,00.0,34.9,27.9,14.8,-001.8,0014.76,0007.29,0006.19
2022-03-04 15:30:00,,0819.1,4.99,0.00,26.1,25.3,00.0,34.9,28.0,14.5,-001.7,0014.85,0007.28,0006.15
2022-03-04 15:31:00,,0819.2,5.00,0.00,26.1,25.4,00.0,34.9,28.0,14.7,-001.5,0015.11,0007.26,0006.13
2022-03-04 15:32:00,,0819.1,4.99,0.00,26.1,25.4,00.0,34.9,28.0,15.0,-001.4,0014.82,0007.30,0006.19
2022-03-04 15:33:00,,0819.1,4.99,0.00,26.1,25.4,00.0,35.0,28.0,15.1,-000.7,0015.90,0007.40,0006.29
2022-03-04 15:34:00,,0819.1,5.01,0.00,26.1,25.4,00.0,35.0,28.0,15.0,-000.4,0015.96,0007.52,0006.38
2022-03-04 15:35:00,,0819.1,4.99,0.00,26.2,25.4,00.0,35.0,28.0,15.2,-000.9,0016.41,0007.60,0006.45
2022-03-04 15:36:00,,0819.1,4.99,0.00,26.2,25.4,00.0,35.0,28.1,15.0,-000.9,0016.55,0007.65,0006.47
2022-03-04 15:37:00,,0819.1,5.01,0.00,26.2,25.5,00.0,35.0,28.1,14.7,-000.3,0016.73,0007.65,0006.47
2022-03-04 15:38:00,,0819.3,5.00,0.00,26.2,25.5,00.0,35.0,28.1,14.6,0000.1,0016.48,0007.67,0006.47
2022-03-04 15:39:00,,0819.3,4.99,0.00,26.2,25.5,00.0,35.1,28.1,14.6,0000.1,0016.52,0007.65,0006.44
2022-03-04 15:40:00,,0819.3,5.00,0.00,26.3,25.5,00.0,35.1,28.1,14.3,0000.0,0016.92,0007.58,0006.39
2022-03-04 15:41:00,,0819.3,5.00,0.00,26.3,25.5,00.0,35.1,28.1,14.9,-000.3,0017.51,0007.55,0006.39
2022-03-04 15:42:00,,0819.3,5.00,0.00,26.3,25.5,00.0,35.1,28.2,15.7,-000.3,0019.27,0007.66,0006.48
2022-03-04 15:43:00,,0819.3,5.01,0.00,26.3,25.5,00.0,35.1,28.2,16.6,-000.1,0021.01,0007.93,0006.71
2022-03-04 15:44:00,,0819.3,5.00,0.00,26.3,25.5,00.0,35.2,28.2,16.6,-000.2,0020.90,0008.21,0006.96
2022-03-04 15:45:00,,0819.2,5.00,0.00,26.3,25.5,00.0,35.2,28.2,16.8,-000.5,0021.51,0008.53,0007.27
2022-03-04 15:46:00,,0819.2,5.00,0.00,26.3,25.5,00.0,35.2,28.2,16.8,-000.3,0021.81,0008.85,0007.54
2022-03-04 15:47:00,,0819.2,5.01,0.00,26.3,25.5,00.0,35.2,28.2,17.0,0000.1,0022.72,0009.28,0007.89
2022-03-04 15:48:00,,0819.2,5.00,0.00,26.3,25.5,00.0,35.2,28.2,17.0,-000.1,0023.11,0009.71,0008.26
2022-03-04 15:49:00,,0819.2,4.99,0.00,26.3,25.5,00.0,35.2,28.2,16.9,-000.2,0024.30,0010.13,0008.65
2022-03-04 15:50:00,,0819.2,5.00,0.00,26.3,25.5,00.0,35.2,28.2,16.9,-000.2,0025.54,0010.53,0009.05
2022-03-04 15:51:00,,0819.2,5.00,0.00,26.3,25.5,00.0,35.2,28.2,16.8,-000.1,0026.70,0011.00,0009.46
2022-03-04 15:52:00,,0819.2,5.00,0.00,26.3,25.5,00.0,35.2,28.2,16.8,0000.1,0026.95,0011.47,0009.86
2022-03-04 15:53:00,,0819.2,5.01,0.00,26.3,25.5,00.0,35.2,28.2,16.8,-000.0,0026.09,0011.79,0010.17
2022-03-04 15:54:00,,0819.2,4.99,0.00,26.3,25.5,00.0,35.3,28.2,17.1,0000.0,0024.61,0011.96,0010.32
2022-03-04 15:55:00,,0819.3,5.00,0.00,26.3,25.5,00.0,35.3,28.2,17.1,-000.3,0024.73,0012.06,0010.40
2022-03-04 15:56:00,,0819.2,5.00,0.00,26.4,25.5,00.0,35.3,28.2,17.0,-000.1,0024.49,0012.12,0010.44
2022-03-04 15:57:00,,0819.3,4.99,0.00,26.4,25.5,00.0,35.3,28.2,17.1,-000.2,0024.77,0012.08,0010.42
2022-03-04 15:58:00,,0819.3,5.01,0.00,26.4,25.5,00.0,35.3,28.2,17.2,-000.3,0024.65,0012.05,0010.40
2022-03-04 15:59:00,,0819.2,4.99,0.00,26.4,25.5,00.0,35.3,28.2,17.3,-000.1,0024.20,0012.00,0010.37
